Hourly Weather Bolshoe Lykovo

Today, 25 July, Sunday

Time Temperature Precipitation Wind Pressure Humidity
00:00 +13°C° 0 mm 0 mps 750 mmHg 75%
01:00 +13°C° 0 mm 0 mps 750 mmHg 75%
02:00 +12°C° 0 mm 0 mps 750 mmHg 76%
03:00 +13°C° 0 mm 0 mps 750 mmHg 76%
04:00 +13°C° 0 mm 0 mps 751 mmHg 75%
05:00 +14°C° 0 mm 0 mps 751 mmHg 75%
06:00 +16°C° 0 mm 0 mps 751 mmHg 69%
07:00 +18°C° 0 mm 0 mps 751 mmHg 62%
08:00 +19°C° 0 mm 0 mps 751 mmHg 56%
09:00 +21°C° 0 mm 0 mps 752 mmHg 51%
10:00 +22°C° 0 mm 0 mps 752 mmHg 47%
11:00 +23°C° 0 mm 0 mps 752 mmHg 42%
12:00 +26°C° 0 mm 1 mps 752 mmHg 41%
13:00 +26°C° 0 mm 1 mps 752 mmHg 39%
14:00 +26°C° 0 mm 2 mps 752 mmHg 38%
15:00 +26°C° 0 mm 2 mps 752 mmHg 41%
16:00 +26°C° 0 mm 2 mps 752 mmHg 43%
17:00 +25°C° 0 mm 2 mps 752 mmHg 46%
18:00 +23°C° 0 mm 2 mps 752 mmHg 51%
19:00 +20°C° 0 mm 2 mps 752 mmHg 56%
20:00 +18°C° 0 mm 2 mps 752 mmHg 61%
21:00 +18°C° 0 mm 2 mps 753 mmHg 62%
22:00 +17°C° 0 mm 2 mps 753 mmHg 64%
23:00 +18°C° 0 mm 1 mps 753 mmHg 65%

Tomorrow, 26 July, Monday

Time Temperature Precipitation Wind Pressure Humidity
00:00 +18°C° 0 mm 1 mps 753 mmHg 65%
01:00 +17°C° 0 mm 2 mps 753 mmHg 65%
02:00 +16°C° 0 mm 2 mps 753 mmHg 65%
03:00 +17°C° 0 mm 2 mps 753 mmHg 65%
04:00 +17°C° 0 mm 2 mps 754 mmHg 65%
05:00 +17°C° 0 mm 2 mps 754 mmHg 65%
06:00 +19°C° 0 mm 2 mps 754 mmHg 62%
07:00 +21°C° 0 mm 1 mps 754 mmHg 59%
08:00 +22°C° 0 mm 1 mps 754 mmHg 56%
09:00 +24°C° 0 mm 1 mps 754 mmHg 51%
10:00 +26°C° 0 mm 1 mps 754 mmHg 46%
11:00 +27°C° 0 mm 1 mps 754 mmHg 41%
12:00 +27°C° 0 mm 1 mps 754 mmHg 40%
13:00 +28°C° 0 mm 1 mps 754 mmHg 40%
14:00 +28°C° 0 mm 1 mps 753 mmHg 40%
15:00 +27°C° 0 mm 1 mps 753 mmHg 46%
16:00 +26°C° 0 mm 2 mps 753 mmHg 52%
17:00 +25°C° 0 mm 2 mps 753 mmHg 57%
18:00 +24°C° 0 mm 2 mps 753 mmHg 60%
19:00 +23°C° 0 mm 1 mps 753 mmHg 62%
20:00 +21°C° 0 mm 1 mps 753 mmHg 65%
21:00 +21°C° 0 mm 1 mps 753 mmHg 66%
22:00 +18°C° 0 mm 0 mps 754 mmHg 68%
23:00 +18°C° 0 mm 0 mps 754 mmHg 69%

Day after tomorrow, 27 July, Tuesday

Time Temperature Precipitation Wind Pressure Humidity
00:00 +18°C° 0 mm 0 mps 754 mmHg 70%
01:00 +18°C° 0 mm 0 mps 754 mmHg 70%
02:00 +18°C° 0 mm 0 mps 753 mmHg 71%
03:00 +18°C° 0 mm 0 mps 754 mmHg 72%
04:00 +18°C° 0 mm 0 mps 754 mmHg 73%
05:00 +17°C° 0 mm 0 mps 754 mmHg 75%
06:00 +19°C° 0 mm 0 mps 754 mmHg 70%
07:00 +21°C° 0 mm 0 mps 754 mmHg 65%
08:00 +22°C° 0 mm 0 mps 754 mmHg 60%
09:00 +26°C° 0 mm 1 mps 754 mmHg 56%
10:00 +27°C° 0 mm 1 mps 753 mmHg 51%
11:00 +28°C° 0 mm 1 mps 753 mmHg 47%
12:00 +29°C° 0 mm 1 mps 753 mmHg 45%
13:00 +29°C° 0 mm 1 mps 753 mmHg 44%
14:00 +29°C° 0 mm 1 mps 752 mmHg 42%
15:00 +28°C° 0 mm 1 mps 752 mmHg 47%
16:00 +27°C° 0 mm 1 mps 752 mmHg 51%
17:00 +26°C° 0 mm 1 mps 752 mmHg 56%
18:00 +25°C° 0.1 mm 1 mps 752 mmHg 59%
19:00 +24°C° 0.1 mm 1 mps 752 mmHg 63%
20:00 +23°C° 0.1 mm 1 mps 752 mmHg 66%
21:00 +22°C° 0 mm 1 mps 752 mmHg 68%
22:00 +22°C° 0 mm 1 mps 752 mmHg 70%
23:00 +21°C° 0 mm 1 mps 752 mmHg 72%

28 July, Wednesday

Time Temperature Precipitation Wind Pressure Humidity
00:00 +21°C° 0 mm 1 mps 752 mmHg 73%
01:00 +20°C° 0 mm 1 mps 751 mmHg 75%
02:00 +20°C° 0 mm 1 mps 751 mmHg 76%
03:00 +20°C° 0 mm 1 mps 751 mmHg 77%
04:00 +19°C° 0 mm 2 mps 751 mmHg 77%
05:00 +19°C° 0 mm 2 mps 751 mmHg 78%
06:00 +21°C° 0 mm 2 mps 751 mmHg 70%
07:00 +24°C° 0 mm 3 mps 751 mmHg 63%
08:00 +26°C° 0 mm 3 mps 750 mmHg 56%
09:00 +27°C° 0 mm 3 mps 750 mmHg 50%
10:00 +29°C° 0 mm 4 mps 750 mmHg 45%
11:00 +30°C° 0 mm 4 mps 749 mmHg 40%
12:00 +29°C° 0 mm 4 mps 749 mmHg 42%
13:00 +29°C° 0 mm 5 mps 749 mmHg 45%
14:00 +28°C° 0 mm 6 mps 749 mmHg 47%
15:00 +26°C° 0 mm 6 mps 749 mmHg 54%
16:00 +23°C° 0 mm 5 mps 749 mmHg 61%
17:00 +21°C° 0 mm 5 mps 749 mmHg 68%
18:00 +21°C° 0.1 mm 4 mps 748 mmHg 74%
19:00 +20°C° 0.1 mm 4 mps 748 mmHg 79%
20:00 +19°C° 0.1 mm 3 mps 747 mmHg 85%
21:00 +19°C° 0.3 mm 3 mps 747 mmHg 87%
22:00 +19°C° 0.3 mm 3 mps 746 mmHg 89%
23:00 +19°C° 0.3 mm 3 mps 746 mmHg 91%

29 July, Thursday

Time Temperature Precipitation Wind Pressure Humidity
00:00 +19°C° 0.5 mm 4 mps 746 mmHg 93%
01:00 +19°C° 0.5 mm 4 mps 745 mmHg 94%
02:00 +18°C° 0.5 mm 4 mps 745 mmHg 95%
03:00 +18°C° 0 mm 4 mps 744 mmHg 95%
04:00 +18°C° 0 mm 4 mps 744 mmHg 95%
05:00 +18°C° 0 mm 4 mps 744 mmHg 95%
06:00 +19°C° 0 mm 3 mps 743 mmHg 90%
07:00 +20°C° 0 mm 3 mps 743 mmHg 85%
08:00 +21°C° 0 mm 3 mps 743 mmHg 81%
09:00 +23°C° 0.1 mm 2 mps 743 mmHg 77%
10:00 +24°C° 0.1 mm 2 mps 743 mmHg 73%
11:00 +25°C° 0.1 mm 2 mps 742 mmHg 70%
12:00 +25°C° 0.1 mm 2 mps 742 mmHg 73%
13:00 +24°C° 0.1 mm 3 mps 742 mmHg 76%
14:00 +24°C° 0.1 mm 3 mps 742 mmHg 79%
15:00 +24°C° 0.1 mm 3 mps 742 mmHg 78%
16:00 +24°C° 0.1 mm 3 mps 742 mmHg 78%
17:00 +24°C° 0.1 mm 3 mps 742 mmHg 77%
18:00 +22°C° 0.1 mm 3 mps 742 mmHg 82%
19:00 +21°C° 0.1 mm 3 mps 742 mmHg 88%
20:00 +20°C° 0.1 mm 3 mps 742 mmHg 93%
21:00 +19°C° 0 mm 3 mps 742 mmHg 94%
22:00 +19°C° 0 mm 3 mps 742 mmHg 95%
23:00 +18°C° 0 mm 3 mps 742 mmHg 95%

30 July, Friday

Time Temperature Precipitation Wind Pressure Humidity
00:00 +18°C° 0 mm 3 mps 742 mmHg 96%
01:00 +17°C° 0 mm 4 mps 742 mmHg 96%
02:00 +17°C° 0 mm 4 mps 742 mmHg 97%
03:00 +17°C° 0 mm 4 mps 743 mmHg 96%
04:00 +17°C° 0 mm 4 mps 743 mmHg 96%
05:00 +17°C° 0 mm 3 mps 743 mmHg 95%
06:00 +19°C° 0 mm 4 mps 743 mmHg 88%
07:00 +20°C° 0 mm 4 mps 743 mmHg 81%
08:00 +22°C° 0 mm 5 mps 744 mmHg 74%
09:00 +23°C° 0 mm 5 mps 744 mmHg 67%
10:00 +24°C° 0 mm 6 mps 744 mmHg 61%
11:00 +27°C° 0 mm 6 mps 744 mmHg 54%
12:00 +27°C° 0 mm 6 mps 744 mmHg 50%
13:00 +28°C° 0 mm 6 mps 744 mmHg 47%
14:00 +29°C° 0 mm 6 mps 744 mmHg 43%
15:00 +28°C° 0 mm 5 mps 744 mmHg 48%
16:00 +27°C° 0 mm 5 mps 744 mmHg 54%
17:00 +26°C° 0 mm 4 mps 744 mmHg 59%
18:00 +23°C° 0 mm 4 mps 745 mmHg 62%
19:00 +22°C° 0 mm 4 mps 745 mmHg 66%
20:00 +20°C° 0 mm 3 mps 745 mmHg 69%
21:00 +19°C° 0 mm 3 mps 745 mmHg 68%
22:00 +18°C° 0 mm 3 mps 746 mmHg 68%
23:00 +17°C° 0 mm 3 mps 746 mmHg 67%
Show more

We Need Your Consent

Meteoprog and our Service Providers may store and access personal data such as cookies, device identifiers or other similar technologies on your device and process such data to personalise content and ads, as well as provide social media features and to analyse the traffic.

  • Store and/or access information on your device

    Cookies, device identifiers or other information can be stored or accessed on your device for the purposes indicated above.

  • Personalised ads and content, ad and content measurement, audience insights, and products development

    Ads and content can be personalised based on a profile. More data can be added to better personalise ads and content. Ad and content performance can be measured. Insights about the audience who saw the ads and content can be derived. Such data can be used to develop or improve user’s experience, systems and software.

By clicking ‘I Agree’ you will allow the use of indicated cookies, device identifiers, web beacons or other similar technologies. Your settings can be changed in the browser on your device.

For certain purposes, legitimate interests may be relied on, rather than consent. You can read more about this in our Privacy and Cookie Policy.